Date String (YYYY-MM-DD hh:mm:ss) UTC,Instrument flags,Ambient pressure (hPa),Sample flow (lpm),Bypass flow (lpm),Sample temperature (°C),Ambient temperature (°C),ASC tube jacket temperature (°C),LED temperature (°C),Box temperature (°C),Sample RH (%),Span deviation,Mass concentration (μg/m³),Mass concentration (μg/m³),Mass concentration (μg/m³)
DateTimeUTC,F1_M11,P_M11,Q1_M11,Q2_M11,T1_M11,T2_M11,T3_M11,T4_M11,T5_M11,U1_M11,ZSPAN_M11,X0_M11,X2_M11,X1_M11
2022-02-04 01:00:00,,0829.3,4.98,0.00,22.4,21.6,00.0,31.5,24.0,05.3,0002.2,0018.76,0012.15,0011.68
2022-02-04 01:01:00,,0829.4,5.01,0.00,22.3,21.5,00.0,31.5,23.9,05.4,0001.8,0018.72,0012.12,0011.63
2022-02-04 01:02:00,,0829.4,4.99,0.00,22.3,21.4,00.0,31.5,23.8,05.4,0001.4,0017.72,0012.11,0011.58
2022-02-04 01:03:00,,0829.5,5.01,0.00,22.2,21.4,00.0,31.4,23.8,05.4,0001.3,0017.48,0012.05,0011.51
2022-02-04 01:04:00,,0829.5,5.00,0.00,22.3,21.8,00.0,31.4,23.9,05.4,0001.1,0017.17,0011.99,0011.46
2022-02-04 01:05:00,,0829.5,5.00,0.00,22.4,22.5,00.0,31.5,24.1,05.4,0001.3,0017.21,0011.96,0011.40
2022-02-04 01:06:00,,0829.5,4.99,0.00,22.5,23.0,00.0,31.5,24.4,05.4,0001.5,0017.26,0011.94,0011.36
2022-02-04 01:07:00,,0829.5,5.00,0.00,22.6,23.0,00.0,31.5,24.4,05.4,0001.7,0017.37,0011.89,0011.30
2022-02-04 01:08:00,,0829.5,5.00,0.00,22.5,22.7,00.0,31.5,24.3,05.3,0001.6,0017.58,0011.87,0011.25
2022-02-04 01:09:00,,0829.5,5.00,0.00,22.5,22.3,00.0,31.5,24.2,05.4,0001.8,0017.54,0011.84,0011.20
2022-02-04 01:10:00,,0829.5,4.99,0.00,22.4,22.1,00.0,31.5,24.0,05.4,0001.5,0017.14,0011.86,0011.21
2022-02-04 01:11:00,,0829.5,5.01,0.00,22.3,21.9,00.0,31.5,23.9,05.4,0001.7,0016.24,0011.86,0011.20
2022-02-04 01:12:00,,0829.5,5.00,0.00,22.3,21.7,00.0,31.4,23.9,05.4,0001.5,0016.28,0011.87,0011.20
2022-02-04 01:13:00,,0829.5,4.99,0.00,22.2,21.5,00.0,31.4,23.9,05.4,0001.8,0016.37,0011.84,0011.22
2022-02-04 01:14:00,,0829.5,5.01,0.00,22.2,21.4,00.0,31.4,23.7,05.4,0001.9,0016.32,0011.83,0011.21
2022-02-04 01:15:00,,0829.5,4.99,0.00,22.1,21.2,00.0,31.3,23.7,05.4,0001.8,0016.34,0011.81,0011.20
2022-02-04 01:16:00,,0829.5,5.01,0.00,22.1,21.1,00.0,31.3,23.6,05.4,0001.9,0016.38,0011.79,0011.20
2022-02-04 01:17:00,,0829.5,4.98,0.00,22.0,21.0,00.0,31.3,23.4,05.5,0002.2,0016.57,0011.76,0011.18
2022-02-04 01:18:00,,0829.6,5.01,0.00,21.9,21.2,00.0,31.3,23.5,05.5,0002.3,0016.42,0011.74,0011.18
2022-02-04 01:19:00,,0829.5,4.99,0.00,22.1,21.8,00.0,31.3,23.8,05.5,0002.5,0016.39,0011.70,0011.15
2022-02-04 01:20:00,,0829.6,5.01,0.00,22.2,22.5,00.0,31.3,24.0,05.5,0002.4,0016.45,0011.70,0011.13
2022-02-04 01:21:00,,0829.6,5.01,0.00,22.3,22.9,00.0,31.3,24.2,05.4,0002.5,0016.51,0011.70,0011.14
2022-02-04 01:22:00,,0829.5,4.98,0.00,22.4,22.7,00.0,31.3,24.2,05.4,0002.5,0016.45,0011.69,0011.16
2022-02-04 01:23:00,,0829.5,5.01,0.00,22.3,22.4,00.0,31.3,24.0,05.5,0002.8,0016.31,0011.64,0011.13
2022-02-04 01:24:00,,0829.5,4.99,0.00,22.2,22.0,00.0,31.3,23.8,05.4,0002.7,0016.38,0011.66,0011.12
2022-02-04 01:25:00,,0829.6,5.00,0.00,22.2,21.8,00.0,31.3,23.7,05.4,0003.1,0016.46,0011.68,0011.12
2022-02-04 01:26:00,,0829.6,5.01,0.00,22.1,21.6,00.0,31.3,23.7,05.4,0002.9,0016.60,0011.72,0011.12
2022-02-04 01:27:00,,0829.7,4.99,0.00,22.1,21.5,00.0,31.2,23.6,05.5,0002.4,0016.49,0011.73,0011.13
2022-02-04 01:28:00,,0829.7,5.00,0.00,22.0,21.4,00.0,31.2,23.6,05.5,0002.0,0016.23,0011.75,0011.16
2022-02-04 01:29:00,,0829.7,5.00,0.00,22.0,21.2,00.0,31.2,23.5,05.5,0002.3,0016.18,0011.78,0011.19
2022-02-04 01:30:00,,0829.7,5.00,0.00,21.9,21.1,00.0,31.2,23.4,05.5,0002.4,0017.02,0011.84,0011.26
2022-02-04 01:31:00,,0829.7,5.01,0.00,21.8,21.0,00.0,31.1,23.3,05.6,0002.6,0017.48,0011.91,0011.36
2022-02-04 01:32:00,,0829.7,5.00,0.00,21.9,21.4,00.0,31.1,23.4,05.6,0002.6,0017.67,0011.97,0011.41
2022-02-04 01:33:00,,0829.6,5.00,0.00,22.0,22.1,00.0,31.1,23.7,05.6,0002.1,0018.26,0012.07,0011.49
2022-02-04 01:34:00,,0829.7,4.99,0.00,22.1,22.7,00.0,31.2,24.0,05.6,0001.6,0018.37,0012.17,0011.59
2022-02-04 01:35:00,,0829.6,5.01,0.00,22.2,22.6,00.0,31.2,24.0,05.5,0001.8,0018.29,0012.25,0011.68
2022-02-04 01:36:00,,0829.6,4.98,0.00,22.1,22.2,00.0,31.2,23.8,05.6,0001.3,0018.54,0012.35,0011.78
2022-02-04 01:37:00,,0829.6,5.01,0.00,22.0,21.7,00.0,31.1,23.5,05.6,0001.4,0018.96,0012.40,0011.86
2022-02-04 01:38:00,,0829.5,5.01,0.00,21.8,21.3,00.0,31.1,23.2,05.6,0001.6,0019.01,0012.45,0011.93
2022-02-04 01:39:00,,0829.5,4.99,0.00,21.7,20.9,00.0,31.0,23.0,05.7,0001.6,0019.02,0012.40,0011.86
2022-02-04 01:40:00,,0829.5,5.02,0.00,21.6,20.6,00.0,31.0,22.8,05.6,0001.5,0018.63,0012.03,0011.50
2022-02-04 01:41:00,,0829.6,5.00,0.00,21.6,21.0,00.0,31.0,23.0,05.6,0001.1,0017.01,0011.61,0011.12
2022-02-04 01:42:00,,0829.5,4.99,0.00,21.7,21.8,00.0,31.0,23.3,05.6,0000.8,0016.14,0011.19,0010.70
2022-02-04 01:43:00,,0829.5,5.01,0.00,21.8,22.4,00.0,31.0,23.6,05.5,0000.5,0015.38,0010.69,0010.23
2022-02-04 01:44:00,,0829.5,5.00,0.00,22.0,22.8,00.0,31.0,23.9,05.4,0001.0,0014.32,0010.09,0009.67
2022-02-04 01:45:00,,0829.4,5.00,0.00,22.0,22.4,00.0,31.0,23.7,05.3,0001.2,0013.60,0009.44,0009.04
2022-02-04 01:46:00,,0829.5,4.99,0.00,21.9,21.9,00.0,31.0,23.4,05.4,0001.3,0012.90,0008.82,0008.45
2022-02-04 01:47:00,,0829.5,5.02,0.00,21.7,21.5,00.0,31.0,23.2,05.5,0001.4,0012.14,0008.27,0007.93
2022-02-04 01:48:00,,0829.7,4.99,0.00,21.6,21.0,00.0,30.9,23.0,05.6,0001.6,0011.19,0007.77,0007.43
2022-02-04 01:49:00,,0829.5,5.00,0.00,21.5,20.7,00.0,30.9,22.8,05.7,0001.0,0010.92,0007.30,0006.96
2022-02-04 01:50:00,,0829.5,5.01,0.00,21.4,20.7,00.0,30.8,22.8,05.7,0000.7,0010.65,0006.97,0006.64
2022-02-04 01:51:00,,0829.5,4.98,0.00,21.5,21.3,00.0,30.8,23.1,05.7,0000.4,0010.97,0006.90,0006.55
2022-02-04 01:52:00,,0829.6,5.01,0.00,21.7,22.1,00.0,30.9,23.4,05.6,0000.0,0011.31,0006.78,0006.40
2022-02-04 01:53:00,,0829.6,5.00,0.00,21.8,22.7,00.0,30.9,23.7,05.5,0001.2,0011.09,0006.59,0006.21
2022-02-04 01:54:00,,0829.6,4.99,0.00,21.9,22.4,00.0,30.9,23.7,05.4,0000.7,0011.05,0006.51,0006.11
2022-02-04 01:55:00,,0829.6,5.00,0.00,21.8,22.1,00.0,30.9,23.5,05.4,0000.0,0011.00,0006.50,0006.08
2022-02-04 01:56:00,,0829.6,5.00,0.00,21.7,21.7,00.0,30.9,23.3,05.5,0000.0,0011.65,0006.82,0006.38
2022-02-04 01:57:00,,0829.6,5.01,0.00,21.6,21.3,00.0,30.8,23.1,05.6,0000.0,0012.22,0007.32,0006.84
2022-02-04 01:58:00,,0829.6,5.00,0.00,21.5,21.0,00.0,30.8,22.9,05.7,0000.2,0012.48,0007.54,0007.06
2022-02-04 01:59:00,,0829.6,5.00,0.00,21.4,20.8,00.0,30.8,22.8,05.8,0001.6,0013.19,0007.95,0007.46
